Location: ?
(35.3436°N, 139.3168°E)
Time: 07:44:17
(UTC+00:00)

GOES 2 Rocket - Pass Details

Date: 29 October 2020
Orbit: 569 x 1674 km, 28.4° (Epoch: 02 December)

Event Time Altitude Azimuth Distance (km) Brightness Sun altitude
Exits shadow 19:26:44 28° 228° (SW) 1,445 4.5 -20.0°
Maximum altitude 19:29:06 43° 176° (S) 1,175 4.5 -19.5°
Drops below altitude 10° 19:35:28 10° 107° (ESE) 2,864 7.6 -18.2°
Sets 19:38:45 0° 102° (ESE) 4,020 8.9 -17.6°
